Tracking 35035 objects as of 16-Aug-2026
HD Live streaming from Space Station
objects crossing your sky now

COSMOS 2499

Track COSMOS 2499 now!
10-day predictions
COSMOS 2499 is classified as:


NORAD ID: 39765
Int'l Code: 2014-028E
Launch date: May 23, 2014
Source: Commonwealth of Independent States (former USSR) (CIS)
Launch site: PLESETSK MISSILE AND SPACE COMPLEX (PKMTR)

Uplink (MHz):
Downlink (MHz): 435.465
Beacon (MHz): 435.465/435.565
Mode: CW
Call sign:
Status:

Your satellite tracking list
Your tracking list is empty




NASA's NSSDC Master Catalog

Two Line Element Set (TLE):
1 39765U 14028E   26228.56308583  .00000016  00000-0  20327-4 0  9998
2 39765  82.4478 211.6838 0230646 219.6558 138.7483 12.82904061572765
Source of the keplerian elements: AFSPC